      6   15 39.37  -21 10.5    1.545   1.080    63.5/ 49    44.0   40.1    6.8    +5.7   58.8

      7   15 42.77  -20 28.6    1.556   1.082    62.6/ 49    43.7   39.6    6.8    +6.3   59.2

      8   15 46.10  -19 47.1    1.568   1.084    61.7/ 48    43.3   39.2    6.8    +6.9   59.6

      9   15 49.35  -19 06.0    1.580   1.087    60.9/ 48    42.9   38.7    6.9    +7.5   60.0

     10   15 52.54  -18 25.3    1.591   1.089    60.1/ 48    42.5   38.3    6.9    +8.1   60.5

     11   15 55.67  -17 45.0    1.603   1.092    59.3/ 48    42.2   37.8    6.9    +8.6   60.9

     12   15 58.73  -17 05.1    1.615   1.096    58.5/ 48    41.8   37.4    6.9    +9.1   61.3

     13   16 01.73  -16 25.7    1.627   1.099    57.7/ 48    41.4   36.9    7.0    +9.6   61.8

     14   16 04.68  -15 46.7    1.638   1.103    56.9/ 47    41.1   36.5    7.0   +10.1   62.2

     15   16 07.58  -15 08.1    1.650   1.107    56.2/ 47    40.8   36.0    7.0   +10.6   62.7

     16   16 10.42  -14 29.9    1.662   1.111    55.4/ 47    40.4   35.6    7.1   +11.0   63.1

     17   16 13.21  -13 52.2    1.674   1.115    54.7/ 47    40.1   35.1    7.1   +11.4   63.6

     18   16 15.96  -13 14.9    1.686   1.120    54.0/ 47    39.8   34.7    7.1   +11.9   64.1

     19   16 18.66  -12 38.0    1.698   1.125    53.4/ 47    39.5   34.3    7.2   +12.2   64.6

     20   16 21.32  -12 01.6    1.710   1.130    52.7/ 47    39.2   33.8    7.2   +12.6   65.0

     21   16 23.93  -11 25.5    1.722   1.135    52.1/ 47    38.9   33.4    7.2   +13.0   65.5

     22   16 26.51  -10 49.9    1.734   1.140    51.5/ 47    38.6   33.0    7.3   +13.3   66.0

     23   16 29.06  -10 14.6    1.746   1.146    50.9/ 47    38.3   32.6    7.3   +13.7   66.5

     24   16 31.56  -09 39.8    1.758   1.152    50.3/ 47    38.1   32.2    7.3   +14.0   67.1

     25   16 34.04  -09 05.3    1.770   1.158    49.7/ 47    37.8   31.8    7.4   +14.3   67.6

     26   16 36.48  -08 31.2    1.782   1.164    49.2/ 47    37.6   31.4    7.4   +14.5   68.1

     27   16 38.89  -07 57.5    1.793   1.170    48.7/ 47    37.3   31.0    7.5   +14.8   68.6

     28   16 41.28  -07 24.1    1.805   1.177    48.2/ 47    37.1   30.6    7.5   +15.1   69.2

     29   16 43.64  -06 51.1    1.817   1.184    47.7/ 47    36.9   30.3    7.5   +15.3   69.7

     30   16 45.97  -06 18.4    1.828   1.191    47.2/ 47    36.7   29.9    7.6   +15.5   70.2

     31   16 48.27  -05 46.1    1.840   1.198    46.8/ 47    36.5   29.6    7.6   +15.7   70.8

Nov.  1   16 50.55  -05 14.1    1.851   1.205    46.3/ 47    36.3   29.2    7.6   +15.9   71.4

                    m1 =  5.5 + 5 log △ + 10.0 log r

NAKANO

         **** Don't distribute anyone except personal use only ****

                (C) Copyright 2008 OAA/ComputingSection

write mail from CFAD0::NAKANO on 2008-09-26 07:46:03(JST).

 

   C/2008 A1 (McNaught)

Epoch 2008 Sept. 11.0 TT = JDT 2454720.5  

T 2008 Sept. 29.12866 TT                                Nakano

q   1.0729879            (2000.0)            P               Q

z  -0.0002697      Peri.  348.48384     +0.10876089     +0.15324885

 +/-0.0000033      Node   277.88392     -0.81502891     -0.55192609

e   1.0002894      Incl.   82.54914     -0.56912121     +0.81969042

From 265 observations 2008 Jan. 10-July 27, mean residual 0".38.

   (1/a)org.= +0.000104, (1/a)fut.= +0.000373 (+/-0.000003), Q= 7.

        



NAKANO

         **** Don't distribute anyone except personal use only ****

                (C) Copyright 2008 OAA/ComputingSection

write mail from CFAD0::NAKANO on 2008-08-02 06:17:22(JST).

    C/2008 A1 (McNaught)

Epoch 2008 Sept. 11.0 TT = JDT 2454720.5  

T 2008 Sept. 29.12780 TT                                Nakano

q   1.0729859            (2000.0)            P               Q

z  -0.0002850      Peri.  348.48351     +0.10876588     +0.15324596

 +/-0.0000137      Node   277.88422     -0.81502503     -0.55193091

e   1.0003058      Incl.   82.54940     -0.56912581     +0.81968771

From 176 observations 2008 Jan. 10-Mar. 16, mean residual 0".37.

   (1/a)org.= +0.000089, (1/a)fut.= +0.000358 (+/-0.000014), Q= 5.



NAKANO

         **** Don't distribute anyone except personal use only ****

                (C) Copyright 2008 OAA/ComputingSection

write mail from CFAD0::NAKANO on 2008-03-30 06:44:05(JST).

 



◎/2008 A1の軌道と予報位置



 3月に入ってからの観測が守山の井狩康一氏(3月15日)より報告されています.

彗星は,夕方の空,南の低空を動いています.



    C/2008 A1 (McNaught)

Epoch 2008 Sept. 11.0 TT = JDT 2454720.5  

T 2008 Sept. 29.12780 TT                                Nakano

q   1.0729859            (2000.0)            P               Q

z  -0.0002850      Peri.  348.48351     +0.10876588     +0.15324596

 +/-0.0000137      Node   277.88422     -0.81502503     -0.55193091

e   1.0003058      Incl.   82.54940     -0.56912581     +0.81968771

From 176 observations 2008 Jan. 10-Mar. 16, mean residual 0".37.

   (1/a)org.= +0.000089, (1/a)fut.= +0.000358 (+/-0.000014), Q= 5.



2008/        α  (2000) δ      △      r    Daily motion  Elong. Phase    m1   天文薄明終了時

 21h JST    h  m       。  ,        AU      AU      ,     。     。      。      等     h。    A 。 

Mar. 20   05 12.64  -39 12.2    2.957   2.965     8.8/343    80.8   19.4   13.1    +8.8   26.3

     21   05 12.42  -39 03.8    2.954   2.954     8.7/345    80.3   19.4   13.1    +8.5   27.2

     22   05 12.23  -38 55.3    2.951   2.943     8.6/347    79.8   19.5   13.0    +8.1   28.2

     23   05 12.07  -38 46.9    2.948   2.931     8.5/349    79.3   19.5   13.0    +7.8   29.1

     24   05 11.94  -38 38.5    2.945   2.920     8.4/352    78.8   19.6   13.0    +7.4   30.0

     25   05 11.83  -38 30.2    2.942   2.909     8.3/354    78.3   19.6   13.0    +7.0   30.9

     26   05 11.75  -38 21.9    2.939   2.897     8.2/356    77.8   19.7   13.0    +6.6   31.8

     27   05 11.70  -38 13.7    2.936   2.886     8.2/358    77.3   19.7   12.9    +6.1   32.7

     28   05 11.68  -38 05.5    2.933   2.875     8.1/  0    76.8   19.8   12.9    +5.7   33.6

     29   05 11.68  -37 57.4    2.929   2.863     8.0/  2    76.4   19.8   12.9    +5.3   34.5

     30   05 11.71  -37 49.4    2.926   2.852     8.0/  5    75.9   19.9   12.9    +4.8   35.3

     31   05 11.76  -37 41.4    2.922   2.841     7.9/  7    75.4   19.9   12.9    +4.3   36.2

Apr.  1   05 11.85  -37 33.5    2.919   2.829     7.9/  9    75.0   19.9   12.8    +3.8   37.0

      2   05 11.95  -37 25.7    2.915   2.818     7.9/ 12    74.5   20.0   12.8    +3.3   37.9

      3   05 12.08  -37 18.0    2.911   2.806     7.9/ 14    74.1   20.0   12.8    +2.8   38.7

      4   05 12.24  -37 10.4    2.907   2.795     7.9/ 16    73.6   20.1   12.8    +2.3   39.5

      5   05 12.42  -37 02.8    2.903   2.784     7.8/ 18    73.2   20.1   12.8    +1.8   40.3

      6   05 12.63  -36 55.4    2.899   2.772     7.9/ 21    72.8   20.2   12.7    +1.2   41.1

      7   05 12.86  -36 48.1    2.895   2.761     7.9/ 23    72.3   20.2   12.7    +0.7   41.9

      8   05 13.12  -36 40.8    2.890   2.749     7.9/ 25    71.9   20.3   12.7    +0.1   42.7

      9   05 13.40  -36 33.7    2.886   2.738     7.9/ 28    71.5   20.3   12.7    -0.4   43.4

     10   05 13.71  -36 26.7    2.881   2.726     8.0/ 30    71.1   20.3   12.7    -1.0   44.2

     11   05 14.03  -36 19.8    2.876   2.715     8.0/ 32    70.7   20.4   12.6    -1.6   44.9

     12   05 14.39  -36 13.0    2.871   2.703     8.1/ 34    70.3   20.4   12.6    -2.2   45.6

     13   05 14.76  -36 06.3    2.867   2.692     8.1/ 36    69.9   20.5   12.6    -2.8   46.4

     14   05 15.16  -35 59.8    2.861   2.680     8.2/ 39    69.5   20.5   12.6    -3.4   47.1

     15   05 15.58  -35 53.4    2.856   2.669     8.3/ 41    69.1   20.6   12.5    -4.0   47.8     16   05 16.02  -35 47.1    2.851   2.657     8.4/ 43    68.8   20.6   12.5     -4.6   48.5

     17   05 16.49  -35 40.9    2.845   2.646     8.5/ 45    68.4   20.7   12.5    -5.3   49.2

     18   05 16.97  -35 34.9    2.840   2.634     8.6/ 47    68.0   20.7   12.5    -5.9   49.9

     19   05 17.48  -35 29.0    2.834   2.623     8.7/ 49    67.7   20.8   12.4    -6.6   50.5

     20   05 18.01  -35 23.3    2.828   2.611     8.8/ 50    67.3   20.8   12.4    -7.2   51.2

     21   05 18.57  -35 17.7    2.822   2.599     8.9/ 52    67.0   20.8   12.4    -7.9   51.9

     22   05 19.14  -35 12.2    2.816   2.588     9.0/ 54    66.7   20.9   12.4    -8.6   52.5

     23   05 19.74  -35 06.9    2.810   2.576     9.2/ 56    66.3   20.9   12.4    -9.2   53.1

     24   05 20.36  -35 01.8    2.803   2.565     9.3/ 58    66.0   21.0   12.3    -9.9   53.8

     25   05 21.00  -34 56.7    2.797   2.553     9.5/ 59    65.7   21.1   12.3   -10.6   54.4

     26   05 21.66  -34 51.9    2.790   2.542     9.6/ 61    65.4   21.1   12.3   -11.3   55.0

     27   05 22.34  -34 47.2    2.783   2.530     9.8/ 62    65.1   21.2   12.3   -12.0   55.6

     28   05 23.04  -34 42.7    2.776   2.518     9.9/ 64    64.8   21.2   12.2   -12.7   56.2

     29   05 23.76  -34 38.3    2.769   2.507    10.1/ 65    64.5   21.3   12.2   -13.4   56.8

     30   05 24.51  -34 34.1    2.762   2.495    10.3/ 67    64.3   21.3   12.2   -14.1   57.4

May   1   05 25.28  -34 30.0    2.754   2.483    10.5/ 68    64.0   21.4   12.2   -14.8   57.9

                    m1 =  6.0 + 5 log △ + 10.0 log r

NAKANO

         **** Don't distribute anyone except personal use only ****

                (C) Copyright 2008 OAA/ComputingSection

write mail from CFAD0::NAKANO on 2008-03-21 02:55:31(JST).

 



    C/2008 A1 (McNaught)

T 2008 Sept. 29.12632 TT                                Nakano

q   1.0729787            (2000.0)            P               Q

                   Peri.  348.48943     +0.10840867     +0.15341964

                   Node   277.86521     -0.81512410     -0.55184938

e   1.0            Incl.   82.53483     -0.56905207     +0.81971012

From 115 observations 2008 Jan. 10-Feb. 9.

NAKANO

         **** Don't distribute anyone except personal use only ****

